When you browse on this site, cookies collect data to enhance your experience and personalize the content and advertising you see.
Visit our Privacy Policy to learn more. By continuing to use the site, you agree to this use of cookies and data.
  • In Hungary
  • List of Countries
  • For 7 days
  • Water Temperature
  • Satellite Maps
  • Weather Map
  • News
  • Weather Widgets
  • user-avatar
    Login

    Hourly Weather Cagnes-sur-Mer

    Today, 20 March, Wednesday

    Time Temperature Precipitation Wind Pressure Humidity
    00:00 +9°C° 0 mm 3 mps 764 mmHg 48%
    01:00 +8°C° 0 mm 3 mps 764 mmHg 46%
    02:00 +8°C° 0 mm 3 mps 764 mmHg 44%
    03:00 +8°C° 0 mm 3 mps 765 mmHg 42%
    04:00 +8°C° 0 mm 3 mps 765 mmHg 43%
    05:00 +7°C° 0 mm 4 mps 765 mmHg 43%
    06:00 +7°C° 0 mm 4 mps 766 mmHg 43%
    07:00 +10°C° 0 mm 4 mps 766 mmHg 39%
    08:00 +12°C° 0 mm 4 mps 766 mmHg 34%
    09:00 +14°C° 0 mm 4 mps 766 mmHg 30%
    10:00 +15°C° 0 mm 4 mps 766 mmHg 28%
    11:00 +17°C° 0 mm 4 mps 766 mmHg 26%
    12:00 +17°C° 0 mm 5 mps 766 mmHg 24%
    13:00 +17°C° 0 mm 5 mps 766 mmHg 24%
    14:00 +17°C° 0 mm 5 mps 766 mmHg 25%
    15:00 +17°C° 0 mm 5 mps 765 mmHg 25%
    16:00 +15°C° 0 mm 4 mps 766 mmHg 30%
    17:00 +14°C° 0 mm 4 mps 766 mmHg 34%
    18:00 +12°C° 0 mm 3 mps 766 mmHg 38%
    19:00 +11°C° 0 mm 3 mps 766 mmHg 36%
    20:00 +11°C° 0 mm 3 mps 767 mmHg 34%
    21:00 +10°C° 0 mm 3 mps 767 mmHg 32%
    22:00 +10°C° 0 mm 3 mps 767 mmHg 31%
    23:00 +10°C° 0 mm 3 mps 768 mmHg 30%

    Tomorrow, 21 March, Thursday

    Time Temperature Precipitation Wind Pressure Humidity
    00:00 +8°C° 0 mm 4 mps 768 mmHg 29%
    01:00 +8°C° 0 mm 4 mps 768 mmHg 29%
    02:00 +8°C° 0 mm 4 mps 767 mmHg 30%
    03:00 +8°C° 0 mm 4 mps 767 mmHg 30%
    04:00 +8°C° 0 mm 4 mps 767 mmHg 30%
    05:00 +8°C° 0 mm 4 mps 767 mmHg 30%
    06:00 +8°C° 0 mm 4 mps 767 mmHg 30%
    07:00 +11°C° 0 mm 3 mps 767 mmHg 27%
    08:00 +14°C° 0 mm 3 mps 768 mmHg 23%
    09:00 +18°C° 0 mm 2 mps 768 mmHg 20%
    10:00 +19°C° 0 mm 3 mps 767 mmHg 20%
    11:00 +20°C° 0 mm 3 mps 767 mmHg 19%
    12:00 +21°C° 0 mm 4 mps 767 mmHg 19%
    13:00 +21°C° 0 mm 4 mps 767 mmHg 20%
    14:00 +21°C° 0 mm 4 mps 766 mmHg 21%
    15:00 +20°C° 0 mm 4 mps 766 mmHg 23%
    16:00 +19°C° 0 mm 3 mps 766 mmHg 28%
    17:00 +17°C° 0 mm 3 mps 766 mmHg 32%
    18:00 +15°C° 0 mm 2 mps 766 mmHg 37%
    19:00 +15°C° 0 mm 2 mps 766 mmHg 34%
    20:00 +14°C° 0 mm 2 mps 767 mmHg 31%
    21:00 +13°C° 0 mm 2 mps 767 mmHg 27%
    22:00 +13°C° 0 mm 2 mps 767 mmHg 25%
    23:00 +13°C° 0 mm 2 mps 767 mmHg 22%

    Day after tomorrow, 22 March, Friday

    Time Temperature Precipitation Wind Pressure Humidity
    00:00 +12°C° 0 mm 2 mps 767 mmHg 19%
    01:00 +12°C° 0 mm 2 mps 767 mmHg 17%
    02:00 +12°C° 0 mm 2 mps 767 mmHg 16%
    03:00 +12°C° 0 mm 2 mps 767 mmHg 14%
    04:00 +12°C° 0 mm 2 mps 767 mmHg 14%
    05:00 +12°C° 0 mm 2 mps 767 mmHg 13%
    06:00 +12°C° 0 mm 2 mps 767 mmHg 13%
    07:00 +14°C° 0 mm 2 mps 767 mmHg 12%
    08:00 +17°C° 0 mm 2 mps 767 mmHg 12%
    09:00 +21°C° 0 mm 1 mps 767 mmHg 12%
    10:00 +20°C° 0 mm 2 mps 766 mmHg 14%
    11:00 +21°C° 0 mm 3 mps 766 mmHg 16%
    12:00 +22°C° 0 mm 3 mps 766 mmHg 17%
    13:00 +22°C° 0 mm 3 mps 766 mmHg 20%
    14:00 +21°C° 0 mm 3 mps 765 mmHg 22%
    15:00 +21°C° 0 mm 2 mps 765 mmHg 24%
    16:00 +19°C° 0 mm 2 mps 765 mmHg 30%
    17:00 +18°C° 0 mm 1 mps 765 mmHg 35%
    18:00 +16°C° 0 mm 1 mps 765 mmHg 41%
    19:00 +15°C° 0 mm 1 mps 765 mmHg 38%
    20:00 +15°C° 0 mm 2 mps 766 mmHg 36%
    21:00 +15°C° 0 mm 2 mps 766 mmHg 33%
    22:00 +14°C° 0 mm 2 mps 766 mmHg 29%
    23:00 +14°C° 0 mm 2 mps 766 mmHg 26%

    23 March, Saturday

    Time Temperature Precipitation Wind Pressure Humidity
    00:00 +14°C° 0 mm 2 mps 766 mmHg 22%
    01:00 +14°C° 0 mm 2 mps 766 mmHg 21%
    02:00 +14°C° 0 mm 2 mps 765 mmHg 19%
    03:00 +13°C° 0 mm 2 mps 765 mmHg 17%
    04:00 +13°C° 0 mm 2 mps 765 mmHg 17%
    05:00 +13°C° 0 mm 2 mps 765 mmHg 16%
    06:00 +13°C° 0 mm 2 mps 765 mmHg 16%
    07:00 +16°C° 0 mm 1 mps 765 mmHg 16%
    08:00 +19°C° 0 mm 1 mps 765 mmHg 16%
    09:00 +21°C° 0 mm 1 mps 765 mmHg 17%
    10:00 +21°C° 0 mm 2 mps 765 mmHg 18%
    11:00 +23°C° 0 mm 2 mps 764 mmHg 19%
    12:00 +24°C° 0 mm 3 mps 764 mmHg 20%
    13:00 +22°C° 0 mm 3 mps 764 mmHg 21%
    14:00 +22°C° 0 mm 3 mps 763 mmHg 23%
    15:00 +21°C° 0 mm 3 mps 763 mmHg 25%
    16:00 +20°C° 0 mm 2 mps 763 mmHg 30%
    17:00 +18°C° 0 mm 2 mps 763 mmHg 35%
    18:00 +16°C° 0 mm 1 mps 763 mmHg 39%
    19:00 +16°C° 0 mm 1 mps 763 mmHg 39%
    20:00 +16°C° 0 mm 1 mps 764 mmHg 38%
    21:00 +16°C° 0 mm 2 mps 764 mmHg 37%
    22:00 +15°C° 0 mm 2 mps 764 mmHg 35%
    23:00 +15°C° 0 mm 2 mps 764 mmHg 32%

    24 March, Sunday

    Time Temperature Precipitation Wind Pressure Humidity
    00:00 +15°C° 0 mm 2 mps 764 mmHg 30%
    01:00 +15°C° 0 mm 2 mps 763 mmHg 27%
    02:00 +15°C° 0 mm 2 mps 763 mmHg 25%
    03:00 +15°C° 0 mm 1 mps 763 mmHg 23%
    04:00 +14°C° 0 mm 1 mps 763 mmHg 23%
    05:00 +14°C° 0 mm 1 mps 763 mmHg 23%
    06:00 +14°C° 0 mm 1 mps 763 mmHg 23%
    07:00 +16°C° 0 mm 2 mps 763 mmHg 23%
    08:00 +18°C° 0 mm 2 mps 763 mmHg 23%
    09:00 +20°C° 0 mm 2 mps 763 mmHg 23%
    10:00 +20°C° 0 mm 2 mps 763 mmHg 24%
    11:00 +21°C° 0 mm 3 mps 763 mmHg 25%
    12:00 +21°C° 0 mm 3 mps 763 mmHg 26%
    13:00 +21°C° 0 mm 3 mps 762 mmHg 28%
    14:00 +21°C° 0 mm 3 mps 762 mmHg 30%
    15:00 +20°C° 0 mm 2 mps 762 mmHg 32%
    16:00 +19°C° 0 mm 2 mps 762 mmHg 37%
    17:00 +18°C° 0 mm 1 mps 762 mmHg 42%
    18:00 +16°C° 0 mm 1 mps 762 mmHg 46%
    19:00 +15°C° 0 mm 1 mps 762 mmHg 47%
    20:00 +15°C° 0 mm 1 mps 762 mmHg 47%
    21:00 +15°C° 0 mm 1 mps 762 mmHg 47%
    22:00 +15°C° 0 mm 1 mps 762 mmHg 47%
    23:00 +14°C° 0 mm 1 mps 762 mmHg 47%

    25 March, Monday

    Time Temperature Precipitation Wind Pressure Humidity
    00:00 +14°C° 0 mm 1 mps 762 mmHg 46%
    01:00 +14°C° 0 mm 1 mps 761 mmHg 46%
    02:00 +14°C° 0 mm 1 mps 761 mmHg 45%
    03:00 +14°C° 0 mm 1 mps 761 mmHg 44%
    04:00 +13°C° 0 mm 1 mps 761 mmHg 44%
    05:00 +13°C° 0 mm 1 mps 761 mmHg 43%
    06:00 +13°C° 0 mm 1 mps 761 mmHg 43%
    07:00 +15°C° 0 mm 1 mps 761 mmHg 39%
    08:00 +18°C° 0 mm 1 mps 761 mmHg 35%
    09:00 +20°C° 0 mm 1 mps 760 mmHg 32%
    10:00 +20°C° 0 mm 2 mps 760 mmHg 32%
    11:00 +21°C° 0 mm 2 mps 760 mmHg 32%
    12:00 +21°C° 0 mm 3 mps 760 mmHg 32%
    13:00 +21°C° 0 mm 3 mps 759 mmHg 33%
    14:00 +21°C° 0 mm 3 mps 759 mmHg 35%
    15:00 +20°C° 0 mm 3 mps 758 mmHg 36%
    16:00 +19°C° 0 mm 2 mps 758 mmHg 42%
    17:00 +17°C° 0 mm 2 mps 757 mmHg 49%
    18:00 +16°C° 0 mm 1 mps 757 mmHg 55%
    19:00 +16°C° 0 mm 1 mps 757 mmHg 57%
    20:00 +15°C° 0 mm 1 mps 757 mmHg 59%
    21:00 +15°C° 0 mm 1 mps 757 mmHg 61%
    22:00 +15°C° 0 mm 1 mps 757 mmHg 61%
    23:00 +15°C° 0 mm 1 mps 757 mmHg 60%
    Show more